Hourly Weather Bartniki

Today, 21 April, Wednesday

Time Temperature Precipitation Wind Pressure Humidity
00:00 +8°C° 0.1 mm 2 mps 747 mmHg 81%
01:00 +8°C° 0.1 mm 2 mps 747 mmHg 84%
02:00 +9°C° 0.1 mm 1 mps 747 mmHg 84%
03:00 +9°C° 0.1 mm 1 mps 747 mmHg 84%
04:00 +9°C° 0.1 mm 1 mps 747 mmHg 83%
05:00 +10°C° 0 mm 1 mps 747 mmHg 81%
06:00 +10°C° 0 mm 1 mps 747 mmHg 78%
07:00 +11°C° 0 mm 1 mps 747 mmHg 75%
08:00 +12°C° 0.1 mm 1 mps 747 mmHg 68%
09:00 +13°C° 0.1 mm 2 mps 747 mmHg 62%
10:00 +14°C° 0.1 mm 2 mps 747 mmHg 56%
11:00 +15°C° 0.1 mm 2 mps 746 mmHg 52%
12:00 +16°C° 0.1 mm 3 mps 746 mmHg 48%
13:00 +16°C° 0.1 mm 3 mps 746 mmHg 44%
14:00 +16°C° 0 mm 3 mps 746 mmHg 45%
15:00 +15°C° 0 mm 4 mps 745 mmHg 46%
16:00 +15°C° 0 mm 4 mps 745 mmHg 46%
17:00 +13°C° 0.1 mm 3 mps 745 mmHg 53%
18:00 +12°C° 0.1 mm 3 mps 745 mmHg 59%
19:00 +10°C° 0.1 mm 2 mps 745 mmHg 65%
20:00 +9°C° 0.1 mm 3 mps 746 mmHg 71%
21:00 +8°C° 0.1 mm 3 mps 746 mmHg 76%
22:00 +6°C° 0.1 mm 4 mps 746 mmHg 81%
23:00 +6°C° 0.1 mm 4 mps 746 mmHg 80%

Tomorrow, 22 April, Thursday

Time Temperature Precipitation Wind Pressure Humidity
00:00 +5°C° 0.1 mm 4 mps 746 mmHg 80%
01:00 +5°C° 0.1 mm 4 mps 746 mmHg 79%
02:00 +4°C° 0 mm 4 mps 746 mmHg 78%
03:00 +1°C° 0 mm 5 mps 746 mmHg 76%
04:00 0°C° 0 mm 5 mps 746 mmHg 75%
05:00 +1°C° 0 mm 6 mps 747 mmHg 74%
06:00 0°C° 0 mm 7 mps 747 mmHg 73%
07:00 0°C° 0 mm 8 mps 747 mmHg 72%
08:00 +1°C° 0 mm 8 mps 747 mmHg 69%
09:00 +1°C° 0 mm 8 mps 747 mmHg 66%
10:00 +2°C° 0 mm 8 mps 748 mmHg 64%
11:00 +4°C° 0.1 mm 8 mps 748 mmHg 63%
12:00 +4°C° 0.1 mm 8 mps 748 mmHg 62%
13:00 +5°C° 0.1 mm 8 mps 747 mmHg 61%
14:00 +5°C° 0.3 mm 8 mps 748 mmHg 60%
15:00 +5°C° 0.3 mm 8 mps 748 mmHg 59%
16:00 +5°C° 0.3 mm 8 mps 748 mmHg 58%
17:00 +4°C° 0 mm 7 mps 748 mmHg 59%
18:00 +3°C° 0 mm 6 mps 748 mmHg 60%
19:00 +2°C° 0 mm 6 mps 749 mmHg 62%
20:00 +2°C° 0 mm 6 mps 749 mmHg 64%
21:00 +1°C° 0 mm 6 mps 749 mmHg 67%
22:00 +1°C° 0 mm 6 mps 749 mmHg 70%
23:00 +1°C° 0 mm 6 mps 749 mmHg 71%

Day after tomorrow, 23 April, Friday

Time Temperature Precipitation Wind Pressure Humidity
00:00 -1°C° 0 mm 6 mps 749 mmHg 72%
01:00 -1°C° 0 mm 6 mps 749 mmHg 72%
02:00 0°C° 0 mm 5 mps 749 mmHg 73%
03:00 -1°C° 0 mm 5 mps 749 mmHg 74%
04:00 -1°C° 0 mm 5 mps 749 mmHg 75%
05:00 -1°C° 0 mm 6 mps 750 mmHg 72%
06:00 +1°C° 0 mm 6 mps 750 mmHg 69%
07:00 +2°C° 0 mm 6 mps 750 mmHg 67%
08:00 +3°C° 0.1 mm 6 mps 750 mmHg 60%
09:00 +4°C° 0.1 mm 6 mps 750 mmHg 53%
10:00 +5°C° 0.1 mm 6 mps 750 mmHg 46%
11:00 +6°C° 0.1 mm 7 mps 751 mmHg 44%
12:00 +6°C° 0.1 mm 7 mps 751 mmHg 41%
13:00 +6°C° 0.1 mm 7 mps 751 mmHg 39%
14:00 +6°C° 0 mm 7 mps 751 mmHg 41%
15:00 +6°C° 0 mm 7 mps 752 mmHg 43%
16:00 +5°C° 0 mm 6 mps 752 mmHg 45%
17:00 +5°C° 0 mm 5 mps 752 mmHg 49%
18:00 +3°C° 0 mm 5 mps 753 mmHg 52%
19:00 +1°C° 0 mm 4 mps 753 mmHg 55%
20:00 +1°C° 0 mm 4 mps 753 mmHg 58%
21:00 +1°C° 0 mm 3 mps 754 mmHg 62%
22:00 0°C° 0 mm 3 mps 754 mmHg 65%
23:00 0°C° 0 mm 3 mps 754 mmHg 65%

24 April, Saturday

Time Temperature Precipitation Wind Pressure Humidity
00:00 -1°C° 0 mm 4 mps 754 mmHg 66%
01:00 0°C° 0 mm 4 mps 754 mmHg 66%
02:00 -1°C° 0 mm 4 mps 754 mmHg 70%
03:00 -2°C° 0 mm 4 mps 753 mmHg 73%
04:00 -2°C° 0 mm 4 mps 753 mmHg 77%
05:00 -1°C° 0 mm 4 mps 754 mmHg 72%
06:00 0°C° 0 mm 4 mps 754 mmHg 67%
07:00 +2°C° 0 mm 5 mps 754 mmHg 62%
08:00 +3°C° 0.1 mm 5 mps 754 mmHg 56%
09:00 +5°C° 0.1 mm 5 mps 753 mmHg 50%
10:00 +7°C° 0.1 mm 6 mps 753 mmHg 44%
11:00 +5°C° 0.2 mm 6 mps 753 mmHg 46%
12:00 +5°C° 0.2 mm 6 mps 753 mmHg 48%
13:00 +5°C° 0.2 mm 7 mps 753 mmHg 50%
14:00 +5°C° 0.1 mm 7 mps 753 mmHg 48%
15:00 +5°C° 0.1 mm 7 mps 753 mmHg 47%
16:00 +5°C° 0.1 mm 7 mps 753 mmHg 45%
17:00 +3°C° 0 mm 6 mps 753 mmHg 50%
18:00 +2°C° 0 mm 5 mps 754 mmHg 55%
19:00 0°C° 0 mm 4 mps 754 mmHg 60%
20:00 0°C° 0 mm 3 mps 754 mmHg 63%
21:00 0°C° 0 mm 3 mps 755 mmHg 66%
22:00 -1°C° 0 mm 3 mps 755 mmHg 69%
23:00 -1°C° 0 mm 3 mps 755 mmHg 69%

25 April, Sunday

Time Temperature Precipitation Wind Pressure Humidity
00:00 -1°C° 0 mm 3 mps 755 mmHg 68%
01:00 -2°C° 0 mm 3 mps 755 mmHg 68%
02:00 -2°C° 0 mm 3 mps 754 mmHg 70%
03:00 -2°C° 0 mm 3 mps 754 mmHg 72%
04:00 -2°C° 0 mm 3 mps 754 mmHg 74%
05:00 -1°C° 0 mm 4 mps 754 mmHg 71%
06:00 0°C° 0 mm 4 mps 754 mmHg 68%
07:00 +1°C° 0 mm 5 mps 754 mmHg 65%
08:00 +3°C° 0.1 mm 5 mps 754 mmHg 59%
09:00 +5°C° 0.1 mm 5 mps 754 mmHg 52%
10:00 +5°C° 0.1 mm 6 mps 754 mmHg 46%
11:00 +5°C° 0.2 mm 6 mps 754 mmHg 48%
12:00 +5°C° 0.2 mm 6 mps 754 mmHg 51%
13:00 +5°C° 0.2 mm 6 mps 753 mmHg 53%
14:00 +4°C° 0.4 mm 6 mps 753 mmHg 56%
15:00 +4°C° 0.4 mm 6 mps 754 mmHg 58%
16:00 +3°C° 0.4 mm 6 mps 754 mmHg 61%
17:00 +2°C° 0 mm 5 mps 754 mmHg 65%
18:00 +1°C° 0 mm 4 mps 754 mmHg 70%
19:00 0°C° 0 mm 3 mps 754 mmHg 74%
20:00 0°C° 0 mm 3 mps 754 mmHg 74%
21:00 0°C° 0 mm 3 mps 754 mmHg 74%
22:00 -1°C° 0 mm 3 mps 754 mmHg 74%
23:00 0°C° 0 mm 3 mps 754 mmHg 72%

26 April, Monday

Time Temperature Precipitation Wind Pressure Humidity
00:00 0°C° 0 mm 3 mps 753 mmHg 70%
01:00 0°C° 0 mm 3 mps 753 mmHg 68%
02:00 -1°C° 0 mm 4 mps 753 mmHg 71%
03:00 -1°C° 0 mm 4 mps 753 mmHg 75%
04:00 -1°C° 0 mm 4 mps 753 mmHg 78%
05:00 0°C° 0 mm 4 mps 753 mmHg 76%
06:00 +1°C° 0 mm 4 mps 753 mmHg 73%
07:00 +2°C° 0 mm 5 mps 753 mmHg 71%
08:00 +2°C° 0 mm 5 mps 753 mmHg 69%
09:00 +3°C° 0 mm 5 mps 754 mmHg 67%
10:00 +4°C° 0 mm 6 mps 754 mmHg 66%
11:00 +5°C° 0 mm 5 mps 754 mmHg 65%
12:00 +5°C° 0 mm 5 mps 754 mmHg 65%
13:00 +6°C° 0 mm 5 mps 754 mmHg 65%
14:00 +6°C° 0 mm 4 mps 754 mmHg 65%
15:00 +6°C° 0 mm 4 mps 753 mmHg 65%
16:00 +7°C° 0 mm 3 mps 753 mmHg 65%
17:00 +5°C° 0 mm 3 mps 753 mmHg 72%
18:00 +4°C° 0 mm 3 mps 753 mmHg 78%
19:00 +3°C° 0 mm 2 mps 753 mmHg 85%
20:00 +3°C° 0 mm 2 mps 753 mmHg 87%
21:00 +2°C° 0 mm 2 mps 753 mmHg 89%
22:00 +2°C° 0 mm 1 mps 753 mmHg 91%
23:00 +1°C° 0 mm 2 mps 752 mmHg 92%
Show more